TimeEST,TemperatureF,Dew PointF,Humidity,Sea Level PressureIn,VisibilityMPH,Wind Direction,Wind SpeedMPH,Gust SpeedMPH,PrecipitationIn,Events,Conditions,WindDirDegrees,DateUTC
12:15 AM,39.2,28.4,65,29.66,10.0,SW,10.4,-,N/A,,Clear,220,2014-02-19 05:15:00
12:34 AM,39.2,28.4,65,29.65,10.0,SW,10.4,-,N/A,,Clear,220,2014-02-19 05:34:00
12:55 AM,39.2,28.4,65,29.64,10.0,SW,9.2,-,N/A,,Clear,220,2014-02-19 05:55:00
1:12 AM,37.4,28.4,70,29.64,10.0,SW,9.2,-,N/A,,Clear,220,2014-02-19 06:12:00
1:35 AM,37.4,30.2,75,29.63,10.0,SW,9.2,-,N/A,,Clear,220,2014-02-19 06:35:00
1:55 AM,37.4,28.4,70,29.63,10.0,SW,9.2,-,N/A,,Clear,220,2014-02-19 06:55:00
2:15 AM,35.6,28.4,75,29.62,10.0,SW,6.9,-,N/A,,Clear,220,2014-02-19 07:15:00
2:35 AM,35.6,28.4,75,29.62,10.0,SW,6.9,-,N/A,,Clear,220,2014-02-19 07:35:00
2:54 AM,35.6,28.4,75,29.62,10.0,SW,5.8,-,N/A,,Clear,230,2014-02-19 07:54:00
3:15 AM,35.6,28.4,75,29.61,10.0,SW,4.6,-,N/A,,Clear,230,2014-02-19 08:15:00
3:35 AM,35.6,28.4,75,29.61,10.0,WSW,5.8,-,N/A,,Clear,240,2014-02-19 08:35:00
3:54 AM,33.8,28.4,81,29.61,10.0,WSW,4.6,-,N/A,,Clear,250,2014-02-19 08:54:00
4:15 AM,33.8,28.4,81,29.61,10.0,WSW,4.6,-,N/A,,Clear,240,2014-02-19 09:15:00
4:35 AM,33.8,30.2,87,29.60,10.0,WSW,4.6,-,N/A,,Clear,250,2014-02-19 09:35:00
4:54 AM,33.8,30.2,87,29.60,10.0,West,3.5,-,N/A,,Clear,260,2014-02-19 09:54:00
5:15 AM,33.8,28.4,81,29.61,10.0,WSW,4.6,-,N/A,,Clear,250,2014-02-19 10:15:00
5:35 AM,33.8,28.4,81,29.61,10.0,West,4.6,-,N/A,,Clear,260,2014-02-19 10:35:00
5:54 AM,32.0,28.4,87,29.62,10.0,West,5.8,-,N/A,,Clear,260,2014-02-19 10:54:00
6:15 AM,33.8,28.4,81,29.63,10.0,West,6.9,-,N/A,,Clear,270,2014-02-19 11:15:00
6:34 AM,33.8,28.4,81,29.65,10.0,West,9.2,-,N/A,,Clear,270,2014-02-19 11:34:00
6:55 AM,33.8,28.4,81,29.66,10.0,WNW,9.2,-,N/A,,Clear,290,2014-02-19 11:55:00
7:15 AM,33.8,28.4,81,29.68,10.0,WNW,10.4,-,N/A,,Scattered Clouds,290,2014-02-19 12:15:00
7:34 AM,33.8,28.4,81,29.69,10.0,WNW,10.4,-,N/A,,Scattered Clouds,300,2014-02-19 12:34:00
7:55 AM,33.8,28.4,81,29.70,10.0,NW,9.2,-,N/A,,Scattered Clouds,310,2014-02-19 12:55:00
8:15 AM,33.8,28.4,81,29.72,10.0,WNW,6.9,-,N/A,,Overcast,300,2014-02-19 13:15:00
8:34 AM,33.8,28.4,81,29.73,10.0,West,6.9,-,N/A,,Scattered Clouds,280,2014-02-19 13:34:00
8:55 AM,33.8,28.4,81,29.76,10.0,West,9.2,-,N/A,,Scattered Clouds,280,2014-02-19 13:55:00
9:15 AM,33.8,28.4,81,29.78,5.0,WNW,10.4,19.6,N/A,,Haze,290,2014-02-19 14:15:00
9:34 AM,33.8,30.2,87,29.79,3.0,WNW,6.9,-,N/A,Snow,Light Snow,290,2014-02-19 14:34:00
9:55 AM,33.8,30.2,87,29.80,5.0,WNW,10.4,-,N/A,,Scattered Clouds,290,2014-02-19 14:55:00
10:14 AM,33.8,30.2,87,29.82,5.0,NW,10.4,-,N/A,,Mostly Cloudy,310,2014-02-19 15:14:00
10:35 AM,33.8,30.2,87,29.83,5.0,WNW,8.1,-,N/A,,Mostly Cloudy,290,2014-02-19 15:35:00
10:55 AM,35.6,30.2,81,29.84,5.0,West,8.1,-,N/A,,Mostly Cloudy,270,2014-02-19 15:55:00
11:14 AM,35.6,30.2,81,-9999,5.0,West,9.2,-,N/A,,Mostly Cloudy,270,2014-02-19 16:14:00
11:35 AM,35.6,30.2,81,29.85,7.0,West,8.1,17.3,N/A,,Overcast,280,2014-02-19 16:35:00
11:55 AM,37.4,32.0,81,29.86,7.0,West,9.2,-,N/A,,Overcast,280,2014-02-19 16:55:00
12:14 PM,37.4,32.0,81,29.87,10.0,West,9.2,-,N/A,,Scattered Clouds,280,2014-02-19 17:14:00
12:35 PM,37.4,30.2,75,29.87,10.0,West,10.4,-,N/A,,Clear,260,2014-02-19 17:35:00
12:55 PM,39.2,30.2,70,29.88,10.0,West,9.2,-,N/A,,Clear,280,2014-02-19 17:55:00
1:14 PM,39.2,30.2,70,29.88,10.0,WSW,9.2,-,N/A,,Clear,250,2014-02-19 18:14:00
1:35 PM,39.2,30.2,70,29.89,10.0,WSW,11.5,-,N/A,,Clear,250,2014-02-19 18:35:00
1:54 PM,39.2,30.2,70,29.90,10.0,SW,9.2,-,N/A,,Clear,230,2014-02-19 18:54:00
2:15 PM,39.2,30.2,70,29.91,10.0,SW,11.5,-,N/A,,Clear,230,2014-02-19 19:15:00
2:35 PM,41.0,28.4,61,29.91,10.0,WSW,9.2,-,N/A,,Clear,240,2014-02-19 19:35:00
2:54 PM,41.0,28.4,61,29.92,10.0,WSW,11.5,-,N/A,,Clear,250,2014-02-19 19:54:00
3:15 PM,41.0,28.4,61,29.92,10.0,WSW,5.8,-,N/A,,Clear,250,2014-02-19 20:15:00
3:35 PM,39.2,30.2,70,29.93,10.0,SW,6.9,-,N/A,,Clear,220,2014-02-19 20:35:00
3:54 PM,39.2,30.2,70,29.95,10.0,SSW,6.9,-,N/A,,Clear,210,2014-02-19 20:54:00
4:15 PM,39.2,28.4,65,29.96,10.0,SW,8.1,-,N/A,,Clear,230,2014-02-19 21:15:00
4:35 PM,41.0,26.6,57,29.96,10.0,WSW,6.9,-,N/A,,Clear,240,2014-02-19 21:35:00
4:54 PM,41.0,26.6,57,29.97,10.0,WSW,5.8,-,N/A,,Clear,240,2014-02-19 21:54:00
5:15 PM,37.4,28.4,70,29.98,10.0,SSW,8.1,-,N/A,,Clear,210,2014-02-19 22:15:00
5:35 PM,37.4,28.4,70,30.00,10.0,SW,11.5,-,N/A,,Clear,220,2014-02-19 22:35:00
5:54 PM,37.4,28.4,70,30.01,10.0,SW,9.2,-,N/A,,Clear,230,2014-02-19 22:54:00
6:15 PM,35.6,28.4,75,30.02,10.0,SSW,8.1,-,N/A,,Clear,210,2014-02-19 23:15:00
6:35 PM,35.6,28.4,75,30.02,10.0,SSW,9.2,-,N/A,,Clear,210,2014-02-19 23:35:00
6:54 PM,33.8,28.4,81,30.02,10.0,SSW,6.9,-,N/A,,Clear,200,2014-02-19 23:54:00
7:15 PM,33.8,28.4,81,30.02,10.0,South,5.8,-,N/A,,Clear,190,2014-02-20 00:15:00
7:35 PM,33.8,28.4,81,30.02,10.0,South,5.8,-,N/A,,Clear,170,2014-02-20 00:35:00
7:55 PM,33.8,28.4,81,30.01,10.0,South,5.8,-,N/A,,Clear,170,2014-02-20 00:55:00
8:15 PM,32.0,28.4,87,30.01,10.0,South,5.8,-,N/A,,Clear,180,2014-02-20 01:15:00
8:35 PM,32.0,28.4,87,30.00,10.0,South,5.8,-,N/A,,Clear,180,2014-02-20 01:35:00
8:55 PM,30.2,28.4,93,30.00,10.0,South,4.6,-,N/A,,Clear,170,2014-02-20 01:55:00
9:15 PM,30.2,28.4,93,29.99,10.0,SSE,4.6,-,N/A,,Clear,160,2014-02-20 02:15:00
9:34 PM,30.2,26.6,86,30.00,10.0,South,3.5,-,N/A,,Clear,170,2014-02-20 02:34:00
9:55 PM,30.2,26.6,86,30.00,10.0,SSE,3.5,-,N/A,,Clear,160,2014-02-20 02:55:00
10:14 PM,30.2,26.6,86,30.00,10.0,SSE,3.5,-,N/A,,Clear,160,2014-02-20 03:14:00
10:35 PM,30.2,26.6,86,30.00,10.0,Calm,Calm,-,N/A,,Clear,0,2014-02-20 03:35:00
10:55 PM,30.2,26.6,86,30.01,7.0,Calm,Calm,-,N/A,,Clear,0,2014-02-20 03:55:00
11:14 PM,30.2,26.6,86,30.01,10.0,Calm,Calm,-,N/A,,Clear,0,2014-02-20 04:14:00
11:35 PM,30.2,26.6,86,30.01,10.0,Calm,Calm,-,N/A,,Clear,0,2014-02-20 04:35:00
11:55 PM,30.2,28.4,93,30.01,10.0,Calm,Calm,-,N/A,,Clear,0,2014-02-20 04:55:00